Погода в Питлохри

Великобритания     56°42′12″N   3°43′45″W
темп.,
°C
ветер,
м/с
пор.,
м/с
влажн.,
%
обл.,
%
осадки,
мм/ч
давл.,
гПа
погр.,
м
26 октября, вт
вт2601:00+5юв2395100 0.2 1007106
04:00+6юв2499100 0.0 1006177
07:00+6ююв3995100 0.1 1004970
10:00+6ююв3997100 1.1 1003610
13:00+10ююз31388100 1.4 10011170
16:00+10ююв3696100 0.2 1000187
19:00+11ююв3896100 0.8 999352
22:00+12ююз71886100 0.1 9981411
27 октября, ср
ср2701:00+12юз61788100 1.1 9981414
04:00+9юз1193100 0.1 100014
07:00+7зюз0095100 0.1 100210
10:00+8юв1295100 0.0 100393
13:00+11ююв3689100 0.0 1003366
16:00+11ююв3691100 0.1 1001357
19:00+11ююв3997100 0.1 1001671
22:00+10юв3899100 0.6 1000552
28 октября, чт
чт2801:00+10ююв3799100 2.5 998438
04:00+10юз2397100 2.1 99990
07:00+6з1194100 2.2 100110
10:00+7юв1394100 0.0 1002117
13:00+9юв2487100 0.0 1001454
16:00+8вюв2591100 0.0 998423
19:00+7в1397100 0.1 996180
22:00+8юв2399100 0.3 995259
29 октября, пт
пт2901:00+8вюв1499100 0.5 993308
04:00+9ююв1299100 0.1 993129
07:00+8ююз1199100 0.3 99351
10:00+9ю1189100 0.1 99458
13:00+10ю237875 0.2 994703
16:00+9ю2381100 0.1 994147
19:00+5ююв1195100 0.1 99510
22:00+5юв1198100 0.0 99610
30 октября, сб
сб3001:00+4вюв1199100 0.0 99514
04:00+4в12100100 0.0 99460
07:00+5вюв1299100 0.0 994118
10:00+5ююв1297100 0.0 995172
13:00+8ююз257518 0.1 995831
16:00+7ююз357586 0.0 995841
19:00+5юв1184100 0.0 99717
22:00+3вюв119852 0.0 99812